Date,TemperatureHighF,TemperatureAvgF,TemperatureLowF,DewpointHighF,DewpointAvgF,DewpointLowF,HumidityHigh,HumidityAvg,HumidityLow,PressureMaxIn,PressureMinIn,WindSpeedMaxMPH,WindSpeedAvgMPH,GustSpeedMaxMPH,PrecipitationSumIn
2013-2-1,38,23,14,0,-10,-16,24,22,19,30.45,30.16,6,2,7,0.00
2013-2-2,44,34,27,6,-1,-8,23,21,19,30.16,29.96,8,2,11,0.00
2013-2-3,42,30,25,4,-2,-9,31,24,20,30.13,29.92,8,2,12,0.00
2013-2-4,63,40,26,16,3,-8,23,20,16,29.98,29.64,9,3,11,0.04
2013-2-5,63,40,24,16,3,-9,26,21,16,30.06,29.75,7,2,13,0.00
2013-2-6,63,40,26,16,3,-7,25,21,16,30.17,29.96,4,1,4,0.00
2013-2-7,58,44,33,24,10,-1,39,24,17,30.00,29.70,8,2,9,0.04
2013-2-8,40,36,31,11,4,-2,32,26,21,30.31,29.96,7,3,10,0.00
2013-2-9,51,37,30,10,2,-3,29,22,19,30.31,29.94,4,2,5,0.13
2013-2-10,56,46,37,32,18,8,43,34,19,29.94,29.49,11,3,12,0.78
2013-2-11,57,43,34,13,5,-3,22,20,17,30.06,29.65,12,4,15,0.00
2013-2-12,52,38,27,11,1,-7,23,20,19,30.10,29.84,4,0,5,0.00
2013-2-13,62,44,37,16,6,1,22,20,16,29.87,29.66,7,2,9,0.00
2013-2-14,61,45,34,16,6,-1,23,20,16,29.99,29.73,7,2,11,0.00
2013-2-15,45,36,29,7,0,-6,23,21,20,30.21,29.96,8,3,9,0.00
2013-2-16,46,29,21,7,-6,-11,22,21,19,30.23,30.05,6,2,9,0.00
2013-2-17,60,37,22,15,0,-11,22,20,17,30.14,29.79,4,2,6,0.00
2013-2-18,57,45,34,24,8,0,37,22,17,29.82,29.47,10,3,11,0.04
2013-2-19,42,31,24,5,-4,-9,23,21,19,30.23,29.79,9,4,11,0.00
2013-2-20,30,24,18,-5,-9,-13,23,22,20,30.35,30.22,5,2,6,0.00
2013-2-21,32,27,19,5,-4,-13,31,25,21,30.27,29.73,7,2,8,0.00
2013-2-22,39,32,22,9,1,-11,33,26,20,30.02,29.70,7,2,8,0.00
2013-2-23,43,28,17,5,-5,-14,26,22,20,30.03,29.84,5,1,6,0.00
2013-2-24,53,33,19,10,-2,-13,25,21,18,30.07,29.93,3,0,3,0.16
2013-2-25,48,37,28,11,2,-4,37,23,19,30.01,29.49,10,2,15,0.38
2013-2-26,47,37,34,24,14,8,43,40,30,29.58,29.24,9,3,12,0.70
2013-2-27,36,34,32,10,7,4,37,32,30,29.85,29.58,7,4,11,0.04
2013-2-28,35,33,32,6,3,-1,31,27,22,30.03,29.79,5,3,6,0.00